[[{"header":{"parameterUnit":"m.s-1","parameterCategory":1,"la1":30.2991,"la2":30.254,"lo1":-89.0895,"lo2":-89.0444,"dy":0.0017,"dx":0.0017,"nx":28,"ny":28,"refTime":"2023-10-04T21:00:00:Z","depth":0,"parameterNumber":2,"parameterNumberName":"U-component_of_WINDS"},"data":[0,0,0,0,0,0,0,0,0,0,0,0,0,0,0,0,0,0,0,0,0,0,0,0,0,0,0,0,0,0,0,0,0,0,0,0,0,0,0,0,0,0,0,0,0,0,0,0,0,0,0,0,0,0,0,0,0,0,4.3921,4.3921,0,4.3939,4.394,4.394,4.3882,4.388,4.3879,4.3877,4.3893,4.3895,4.3897,0,0,0,0,0,0,0,0,0,0,0,0,0,4.3832,4.3834,4.392,4.3921,4.3921,4.3939,4.394,4.394,4.3882,4.388,4.3878,4.3876,4.3892,4.3894,4.3897,0,0,0,0,0,0,0,0,0,0,0,0,0,4.3863,4.3835,4.392,4.3895,4.3893,4.3939,4.394,4.394,4.3883,4.388,4.3878,4.3875,4.3891,4.3894,4.3897,4.3969,0,0,4.3907,4.3908,0,0,0,0,0,0,0,0,4.3861,4.3866,4.3898,4.3897,4.3894,4.3906,4.3914,4.3949,4.3884,4.3886,4.3877,4.3874,4.3899,4.3901,4.391,4.3969,4.397,4.3907,4.3909,4.391,4.3911,0,0,0,0,0,0,0,4.3859,4.3865,4.3928,4.3899,4.3896,4.3881,4.3883,4.3921,4.3907,4.3886,4.3882,4.3885,4.3897,4.3908,4.391,4.397,4.3907,4.391,4.3911,4.3913,4.4089,4.4091,0,0,0,0,0,0,4.3861,4.3864,4.3927,4.3928,4.3871,4.3885,4.3887,4.3905,4.3906,4.3904,4.3887,4.3882,4.3904,4.3907,4.3911,4.3993,4.391,4.3913,4.3915,4.4086,4.4089,4.4092,0,0,0,0,0,0,4.3859,4.3867,4.3926,4.3895,4.3901,4.3889,4.391,4.3906,4.3916,4.3908,4.3904,4.39,4.3902,4.3906,4.3955,4.3993,4.3914,4.3917,4.4082,4.4087,4.4091,4.416,0,0,0,0,0,0,4.3857,4.3867,4.3894,4.3896,4.3903,4.3971,4.3912,4.3909,4.3922,4.3916,4.3919,4.3917,4.39,4.3951,4.3958,4.3996,4.3919,4.4079,4.4084,4.4089,4.4155,4.4167,4.4177,0,0,0,0,0,4.3854,4.3912,4.3896,4.3904,4.3937,4.3973,4.3977,4.3958,4.3926,4.3953,4.3947,4.3917,4.3989,4.3956,4.3964,4.4003,4.4076,4.4083,4.4089,4.415,4.4164,4.4177,0,0,0,0,0,0,4.3913,4.3912,4.3894,4.3955,4.3965,4.3964,4.3997,4.3974,4.3992,4.3985,4.3959,4.3961,4.4014,4.4014,4.3977,4.4073,4.4027,4.4035,4.407,4.4084,4.4095,4.4093,4.3922,0,0,0,0,0,4.3934,4.3964,4.3961,4.4015,4.4021,4.4009,4.4024,4.4008,4.4017,4.402,4.4018,4.4027,4.4052,4.4068,4.409,4.4156,4.4155,4.4187,4.4198,4.4207,4.4213,4.4247,4.4261,4.4113,4.4113,4.4113,0,0,4.3975,4.3979,4.3999,4.4027,4.4033,4.4064,4.4012,4.4047,4.407,4.4025,4.4071,4.407,4.4079,4.4136,4.4161,4.4137,4.4255,4.4215,4.4223,4.4224,4.4255,4.4269,4.4282,4.4118,4.4117,4.4116,0,0,4.4067,4.4074,4.4119,4.4127,4.4138,4.4129,4.414,4.4144,4.4142,4.4188,4.4155,4.4181,4.4224,4.4231,4.4241,4.4338,4.431,4.4346,4.4403,4.4436,4.4448,4.4458,4.4491,4.4504,4.4353,4.4354,4.4354,0,4.4117,4.4164,4.4145,4.4183,4.4195,4.4159,4.4204,4.4213,4.423,4.4239,4.4213,4.4267,4.427,4.4328,4.4352,4.4362,4.4372,4.4344,4.4448,4.4458,4.4467,4.4498,4.4511,4.4358,4.4357,4.4357,4.4356,0,4.4224,4.4257,4.4293,4.4312,4.4329,4.437,4.4357,4.4377,4.4361,4.4355,4.4402,4.4405,4.4427,4.444,4.4424,4.4496,4.4481,4.4453,4.4405,4.4486,4.4515,4.4527,4.4364,4.4362,4.4361,4.436,0,0,4.435,4.4361,4.4374,4.4382,4.4392,4.4417,4.4457,4.448,4.4497,4.4511,4.4542,4.4581,4.4555,4.4566,4.455,4.458,4.4656,4.4547,4.4547,4.4566,4.4734,4.4754,4.4768,4.4639,4.4641,4.4643,4.4733,0,4.4439,4.4509,4.4494,4.4562,4.4591,4.4559,4.4594,4.4603,4.46,4.4624,4.4619,4.4647,4.4611,4.4617,4.4645,4.4641,4.4689,4.4634,4.4666,4.4668,4.4663,4.4783,4.4804,4.4888,4.4744,4.4746,4.4747,0,4.4551,4.4571,4.4642,4.4649,4.4661,4.4693,4.4713,4.4737,4.4748,4.4743,4.4756,4.4736,4.4775,4.473,4.4782,4.4746,4.4758,4.4758,4.4761,4.4761,4.471,4.4784,4.4915,4.4927,4.4765,4.4764,4.4763,0,4.4634,4.4679,4.4727,4.4736,4.4745,4.4768,4.4772,4.4781,4.4796,4.4814,4.4823,4.4845,4.4856,4.4874,4.4859,4.4828,4.4914,4.4868,4.4909,4.491,4.4926,4.4925,4.5058,4.4939,4.4939,4.4939,4.4938,0,4.4733,4.4778,4.4764,4.4794,4.4843,4.4826,4.4874,4.4875,4.4883,4.4911,4.4885,4.4912,4.4893,4.4918,4.4907,4.4951,4.4957,4.4953,4.4949,4.4954,4.4954,4.496,4.4953,4.4942,4.4941,4.494,4.494,0,4.4832,4.4826,4.4876,4.4882,4.4884,4.492,4.4924,4.4951,4.4947,4.4983,4.4991,4.4983,4.5012,4.5,4.503,4.5023,4.5079,4.5069,4.5076,4.5072,4.5113,4.5109,4.5253,4.527,4.5142,4.5143,4.5145,0,4.4894,4.4928,4.4939,4.4957,4.4964,4.4993,4.5009,4.4994,4.5012,4.5028,4.5052,4.5079,4.5099,4.5146,4.5143,4.5165,4.5154,4.5203,4.5156,4.516,4.5152,4.5149,4.5151,4.5211,4.5212,4.5214,4.5215,0,4.5005,4.5001,4.5026,4.505,4.5071,4.5089,4.5104,4.512,4.5106,4.5127,4.5157,4.5173,4.5205,4.5231,4.5251,4.5255,4.5232,4.523,4.524,4.5244,4.5246,4.5243,4.5098,4.5226,4.5225,4.5224,4.5223,4.5223,4.5086,4.5115,4.5127,4.5155,4.5166,4.5182,4.5208,4.5208,4.5233,4.5258,4.5248,4.5282,4.5293,4.5318,4.5325,4.5351,4.5331,4.5347,4.535,4.5354,4.5358,4.5245,4.5355,4.5355,4.5354,4.5354,4.5354,0,4.5194,4.5201,4.5228,4.5251,4.5274,4.5254,4.5271,4.529,4.5321,4.5334,4.5355,4.5389,4.5415,4.5415,4.5439,4.5459,4.5449,4.5465,4.5462,4.5463,4.5375,4.5363,4.5473,4.5473,4.5473,4.5473,4.5473,4.5473,4.5252,4.5299,4.5297,4.5349,4.5355,4.5389,4.54,4.5414,4.5424,4.5464,4.5486,4.5487,4.5494,4.5519,4.5541,4.5541,4.5549,4.5569,4.5564,4.5481,4.5469,4.5458,4.5446,4.5572,4.5572,4.565,4.565,4.5651]},{"header":{"parameterUnit":"m.s-1","parameterCategory":1,"la1":30.2991,"la2":30.254,"lo1":-89.0895,"lo2":-89.0444,"dy":0.0017,"dx":0.0017,"nx":28,"ny":28,"refTime":"2023-10-04T21:00:00:Z","depth":0,"parameterNumber":3,"parameterNumberName":"V-component_of_WINDS"},"data":[0,0,0,0,0,0,0,0,0,0,0,0,0,0,0,0,0,0,0,0,0,0,0,0,0,0,0,0,0,0,0,0,0,0,0,0,0,0,0,0,0,0,0,0,0,0,0,0,0,0,0,0,0,0,0,0,0,0,3.9141,3.9146,0,3.9555,3.956,3.9565,3.9683,3.9681,3.9679,3.9677,4.0101,4.0113,4.0127,0,0,0,0,0,0,0,0,0,0,0,0,0,3.8449,3.8461,3.9141,3.9146,3.9151,3.9555,3.956,3.9566,3.9684,3.9681,3.9678,3.9676,4.0096,4.0112,4.0128,0,0,0,0,0,0,0,0,0,0,0,0,0,3.8795,3.8465,3.914,3.9258,3.9273,3.9554,3.9561,3.9568,3.9684,3.9681,3.9677,3.9674,4.0091,4.011,4.013,4.0322,0,0,4.0192,4.02,0,0,0,0,0,0,0,0,3.8775,3.882,3.9236,3.9251,3.9268,3.9564,3.9472,3.9821,3.9685,3.9528,3.9677,3.9673,3.9925,3.9958,4.0044,4.0342,4.036,4.0193,4.0206,4.0214,4.022,0,0,0,0,0,0,0,3.8751,3.8803,3.9305,3.9242,3.9261,3.929,3.9336,3.9539,3.974,3.9542,3.9551,3.9599,3.9933,4.0024,4.0054,4.0366,4.0193,4.0211,4.0223,4.0231,4.0842,4.0846,0,0,0,0,0,0,3.8707,3.8782,3.9292,3.9317,3.9008,3.9305,3.9356,3.9472,3.9739,3.9776,3.9601,3.9603,3.9991,4.0031,4.007,4.0312,4.0214,4.0233,4.0244,4.0838,4.0843,4.0847,0,0,0,0,0,0,3.8692,3.8751,3.9275,3.9053,3.9121,3.9321,3.9451,3.9482,3.9574,3.9784,3.982,3.9657,3.999,4.0041,4.0258,4.0328,4.0242,4.026,4.0833,4.0839,4.0845,4.0797,0,0,0,0,0,0,3.8671,3.8745,3.8821,3.9053,3.9133,3.9457,3.9455,3.9493,3.9608,3.9614,3.9846,3.9881,3.9991,4.0228,4.0278,4.0354,4.0276,4.0828,4.0836,4.0843,4.0793,4.0801,4.0807,0,0,0,0,0,3.8646,3.8791,3.8824,3.8885,3.9232,3.9461,3.9506,3.9631,3.9613,3.9691,3.9825,3.9874,4.0312,4.0249,4.0307,4.039,4.0824,4.0833,4.0843,4.079,4.0799,4.0807,0,0,0,0,0,0,3.8562,3.8824,3.8863,3.9088,3.9251,3.948,3.9582,3.9637,3.9808,3.9807,3.9953,4.0005,4.0211,4.0322,4.0247,4.0589,4.0569,4.059,4.0509,4.052,4.0526,4.0496,4.0293,0,0,0,0,0,3.8569,3.8734,3.8953,3.913,3.921,3.9381,3.9486,3.9567,3.9742,3.9812,3.9963,4.0131,4.0306,4.0419,4.0592,4.0809,4.0861,4.0895,4.0901,4.0906,4.0923,4.1046,4.1063,4.0878,4.0878,4.0878,0,0,3.8586,3.8749,3.8845,3.9117,3.9254,3.942,3.9439,3.9615,3.974,3.9839,4.0053,4.0169,4.0366,4.0583,4.0687,4.0682,4.0986,4.0918,4.092,4.0936,4.1057,4.1074,4.109,4.0885,4.0884,4.0883,0,0,3.8703,3.8843,3.9005,3.9141,3.9347,3.9459,3.9498,3.9719,3.98,4.0017,4.0094,4.0244,4.0544,4.0681,4.079,4.0955,4.1006,4.1007,4.1044,4.1162,4.1176,4.119,4.1249,4.1268,4.1023,4.1023,4.1023,0,3.8698,3.8953,3.9082,3.9254,3.9371,3.9467,3.9632,3.9758,4.0009,4.0087,4.0078,4.0455,4.0595,4.0845,4.0885,4.097,4.1018,4.0982,4.1164,4.1179,4.1193,4.1251,4.1273,4.1022,4.1022,4.1022,4.1022,0,3.8937,3.9112,3.9218,3.9459,3.9587,3.9755,3.9908,4.0023,4.0092,4.0204,4.0423,4.0594,4.0802,4.0867,4.0937,4.1128,4.1119,4.1135,4.1118,4.1208,4.1265,4.1288,4.102,4.1021,4.1021,4.1021,0,0,3.9015,3.9322,3.9359,3.9468,3.9701,3.9839,4.0009,4.0214,4.0309,4.0478,4.0625,4.0875,4.0891,4.1014,4.1099,4.1202,4.1322,4.1207,4.1213,4.1222,4.1542,4.1529,4.1553,4.1356,4.1361,4.1365,4.1526,0,3.9161,3.9471,3.959,3.9843,4.0006,4.0098,4.0247,4.0405,4.0514,4.0668,4.0789,4.0964,4.0972,4.1046,4.1152,4.1285,4.1388,4.1275,4.1494,4.1501,4.1443,4.1583,4.157,4.1714,4.1549,4.1553,4.1555,0,3.9374,3.9545,3.9813,4.0025,4.0097,4.0229,4.0425,4.0571,4.0751,4.0824,4.0959,4.1038,4.122,4.1189,4.1442,4.1361,4.1458,4.1536,4.1545,4.1571,4.1534,4.1613,4.1763,4.1784,4.1592,4.1589,4.1586,0,3.9403,3.97,3.99,3.999,4.0242,4.0332,4.0441,4.0618,4.0733,4.0903,4.0979,4.1168,4.1272,4.1416,4.1543,4.151,4.1783,4.1764,4.1849,4.1845,4.1904,4.1898,4.2071,4.1963,4.1963,4.1963,4.1962,0,3.9555,3.9716,3.9916,4.0038,4.022,4.0355,4.0531,4.0646,4.0803,4.0949,4.104,4.1174,4.1334,4.1489,4.1589,4.1782,4.1828,4.1892,4.1917,4.1885,4.1877,4.1951,4.1945,4.1969,4.1967,4.1966,4.1965,0,3.962,3.9761,3.9983,4.0203,4.0261,4.0386,4.0573,4.0695,4.0807,4.099,4.1041,4.1218,4.1405,4.1546,4.1788,4.1856,4.2061,4.2087,4.2,4.2013,4.209,4.2081,4.2318,4.2356,4.222,4.2221,4.2222,0,3.9708,3.9834,4.0066,4.017,4.0278,4.0445,4.0561,4.0698,4.0816,4.103,4.1126,4.1319,4.1481,4.1775,4.1925,4.211,4.2142,4.2212,4.2171,4.2134,4.2144,4.2135,4.2148,4.2218,4.2218,4.2219,4.222,0,3.9849,3.9912,4.0078,4.0267,4.0404,4.0559,4.0716,4.0796,4.0961,4.1088,4.128,4.1405,4.1652,4.1843,4.2043,4.2155,4.2215,4.2231,4.2261,4.223,4.2174,4.2206,4.2016,4.2226,4.2225,4.2225,4.2224,4.2224,3.993,4.0045,4.0226,4.0407,4.0539,4.0683,4.0808,4.0936,4.1098,4.131,4.138,4.1578,4.1754,4.2029,4.2143,4.2299,4.23,4.2342,4.2354,4.2362,4.236,4.2148,4.2336,4.2336,4.2336,4.2336,4.2336,0,4.0076,4.0197,4.0361,4.0578,4.0719,4.0762,4.0938,4.1053,4.1227,4.1386,4.1543,4.1762,4.1947,4.211,4.2302,4.2396,4.2428,4.2442,4.2437,4.2462,4.2348,4.2304,4.2413,4.2413,4.2413,4.2413,4.2413,4.2413,4.0169,4.0367,4.0451,4.0714,4.0834,4.1029,4.1125,4.1258,4.1386,4.1627,4.1781,4.1886,4.2047,4.2251,4.2422,4.2465,4.2532,4.2539,4.2588,4.248,4.247,4.2461,4.242,4.2552,4.2552,4.269,4.2691,4.2692]}]]